Starlink 31517

operational
NORAD ID: 59213 Int'l Des: 2024-046 Owner: SPXS Country: US Constellation: starlink
LEOCIRCULAR

About Starlink 31517

Description loading...

Live Position

Loading 3D Globe...

Upcoming Passes

Altitude History

Altitude vs Time

uPlot chart will show altitude changes over time

Two-Line Element Set

1 59213U 24046N 25303.01351879 .00000422 00000-0 26370-4 0 9993
2 59213 53.1595 42.2579 0001345 84.0789 276.0365 15.30193100 93035
Epoch: Oct 30, 2025 • Age: 28 hours

Current Status

Altitude 493.3 km
Velocity 7.62 km/s
Sub-Earth Point -49.71°S, 177.63°E
Launch Date Mar 11, 2024
Age 1.6 years
Type internet

Technical Details

Classification Payload
Mass 730.00 kg
Dry Mass 700.00 kg
Total Mass 730.00 kg
Length 0.30 m
Diameter 4.10 m
Span 29.00 m
Shape Box + pan
Manufacturer SPXS
Bus Type Starlink V2M
Phase Status In Orbit
Owner/State SPXS/US

Large Constellations

Loading constellations...